#timestamp,LO_Frequency,Hit,StdDev 
1508544015.9,286047002.8,P
1508544035.7,286046998.4,N
1508544055.5,286047001.9,N
1508544075.4,286047002.7,N
1508544095.2,286046998.2,N
1508544115.0,286047001.1,N
1508544115.9,286047001.1,N
1508544135.7,286046998.2,N
1508544155.6,286047000.8,N
1508544175.4,286047000.2,N
1508544195.2,286047001.0,N
1508544215.1,286047000.7,N
1508544216.0,286047000.7,N
1508544235.8,286047001.2,N
1508544255.6,286046999.4,N
1508544275.5,286046999.9,N
1508544295.3,286047000.4,N
1508544315.1,286047000.2,N
1508544335.9,286047002.8,N
1508544355.7,286047001.5,N
1508544375.5,286047002.5,N
1508544395.4,286047004.4,N
1508544415.2,286047002.4,N
1508544435.0,286047002.7,N
1508544435.9,286047002.7,N
1508544455.8,286047001.7,N
1508544475.6,286047004.5,N
1508544495.4,286047007.9,Y
1508544515.3,286047013.6,P
1508544535.1,286047012.4,N
1508544536.0,286047012.4,N
1508544555.8,286047009.9,N
1508544575.7,286047012.2,N
1508544595.5,286047015.1,Y
1508544615.3,286047008.4,P
1508544635.2,286047013.0,P
1508544655.9,286047013.2,P
1508544675.7,286047010.2,Y
1508544695.6,286047000.1,P
1508544715.4,286046998.5,N
1508544735.2,286047002.6,N
1508544755.1,286047003.3,N
1508544756.0,286047003.3,N
1508544775.8,286047004.0,N
1508544795.6,286047004.8,N
1508544815.5,286047003.8,N
1508544835.3,286047005.3,N
1508544855.1,286047003.1,N
1508544875.9,286047002.6,N
1508544895.7,286046998.1,N
1508544915.5,286047000.0,N
1508544935.4,286046996.7,N
1508544955.2,286046999.5,N
1508544975.0,286046998.9,N
1508544975.9,286046998.9,N
1508544995.8,286046998.0,N
1508545015.6,286046994.6,N
1508545035.4,286046994.7,N
1508545055.3,286046993.4,N
1508545075.1,286046997.8,N
1508545076.0,286046997.8,N
1508545095.8,286046999.4,N
1508545115.6,286046995.0,N
1508545135.5,286046995.3,N
1508545155.3,286046997.5,N
1508545175.1,286046998.3,N
1508545195.9,286046998.1,N
1508545215.7,286046997.3,N
1508545235.5,286047000.8,N
1508545255.4,286046999.4,N
1508545275.2,286046995.6,N
1508545295.0,286046999.5,N
1508545295.9,286046999.5,N
1508545315.8,286046999.0,N
1508545335.6,286046999.0,N
1508545355.4,286046995.7,N
1508545375.3,286046997.6,N
1508545395.1,286046995.0,N
1508545396.0,286046995.0,N
1508545415.8,286046997.9,N
1508545435.7,286046996.8,N
1508545455.5,286046999.5,N
1508545475.3,286046997.2,N
1508545495.2,286046995.5,N
1508545515.9,286046992.4,Y
1508545535.7,286046994.8,P
1508545555.6,286046992.8,P
1508545575.4,286046990.5,P
1508545595.2,286046991.4,Y
1508545615.1,286046997.9,P
1508545616.0,286046997.9,N
1508545635.8,286046993.8,P
1508545655.6,286046992.6,Y
1508545675.5,286046997.1,P
1508545695.3,286046997.1,P
1508545715.1,286046997.3,P
1508545735.9,286046995.0,Y
1508545755.7,286046998.5,P
1508545775.5,286046998.1,N
1508545795.4,286046997.9,P
1508545815.2,286046998.0,Y
1508545835.0,286047000.3,P
1508545835.9,286047000.3,N
1508545855.8,286047001.2,N
1508545875.6,286046999.4,N
1508545895.4,286046996.7,N
1508545915.3,286046998.5,N
1508545935.1,286046999.5,N
1508545955.8,286046999.4,N
1508545975.7,286046999.3,N
1508545995.5,286047002.8,N
1508546015.3,286047001.5,N
1508546035.2,286047000.9,N
1508546055.9,286047002.0,N
1508546075.7,286047000.0,N
1508546095.6,286046999.9,N
1508546115.4,286047001.2,N
1508546135.2,286047002.2,N
1508546155.0,286047002.3,N
1508546156.0,286047002.3,N
1508546175.8,286047002.4,N
1508546195.6,286047001.7,N
1508546215.4,286047001.8,N
1508546235.3,286047002.2,N
1508546255.1,286047000.1,N
1508546275.8,286047001.6,N
1508546295.7,286047007.6,Y
1508546315.5,286047003.7,P
1508546335.3,286047012.3,P
1508546355.2,286047011.4,N
1508546375.0,286047012.8,N
1508546375.9,286047012.8,N
1508546395.8,286047016.9,Y
1508546415.6,286047006.5,P
1508546435.4,286047009.8,P
1508546455.2,286047010.6,P
1508546475.1,286047010.3,Y
1508546476.0,286047010.3,P
1508546495.8,286047002.4,P
1508546515.6,286047002.4,N
1508546535.5,286047002.1,N
1508546555.3,286047009.2,N
1508546575.1,286047010.7,N
1508546595.9,286047009.1,N
1508546615.7,286047008.9,N
1508546635.5,286047007.2,N
1508546655.4,286047004.9,N
1508546675.2,286047007.5,N
1508546695.0,286047009.2,N
1508546695.9,286047009.2,Y
1508546715.8,286046996.9,P
1508546735.6,286046998.4,N
1508546755.4,286047001.1,N
1508546775.3,286046998.4,N
1508546795.1,286047001.0,N
1508546815.8,286046997.1,N
1508546835.7,286046999.2,N
1508546855.5,286047003.8,N
1508546875.3,286047002.9,N
1508546895.2,286047005.2,N
1508546915.9,286047006.8,N
1508546935.7,286047004.9,N
1508546955.6,286047003.6,N
1508546975.4,286047005.3,N
1508546995.2,286047005.6,N
1508547015.0,286047008.4,N
1508547016.0,286047008.4,N
1508547035.8,286047009.7,N
1508547055.6,286047010.2,N
1508547075.4,286047010.1,N
1508547095.3,286047006.6,N
1508547115.1,286047006.7,N
1508547135.8,286047003.3,N
1508547155.7,286047000.1,N
1508547175.5,286047001.2,N
1508547195.3,286047002.2,N
1508547215.2,286047006.5,N
1508547235.9,286047007.1,N
1508547255.7,286047005.2,N
1508547275.6,286047003.4,N
1508547295.4,286047000.8,N
1508547315.2,286046999.2,N
1508547335.1,286046995.4,N
1508547336.0,286046995.4,N
1508547355.8,286046988.9,N
1508547375.6,286046985.0,Y
1508547395.5,286046974.3,P
1508547415.3,286046973.3,N
1508547435.1,286046973.7,N
1508547455.9,286046973.7,N
1508547475.7,286046972.6,N
1508547495.5,286046973.3,N
1508547515.4,286046971.7,N
1508547535.2,286046970.4,N
1508547555.0,286046970.0,Y
1508547555.9,286046970.0,P
1508547575.8,286046997.2,N
1508547595.6,286046997.6,N
